Hourly Weather Cayacoa de Boca Chica

Today, 16 June, Wednesday

Time Temperature Precipitation Wind Pressure Humidity
00:00 +26°C° 0 mm 2 mps 760 mmHg 87%
01:00 +26°C° 0 mm 2 mps 759 mmHg 89%
02:00 +26°C° 0.1 mm 2 mps 759 mmHg 90%
03:00 +26°C° 0.1 mm 2 mps 759 mmHg 90%
04:00 +25°C° 0.1 mm 2 mps 759 mmHg 91%
05:00 +26°C° 0.1 mm 2 mps 759 mmHg 87%
06:00 +27°C° 0.1 mm 2 mps 760 mmHg 82%
07:00 +28°C° 0.1 mm 2 mps 760 mmHg 78%
08:00 +30°C° 0.1 mm 2 mps 760 mmHg 71%
09:00 +31°C° 0.1 mm 2 mps 760 mmHg 65%
10:00 +34°C° 0.1 mm 2 mps 760 mmHg 58%
11:00 +34°C° 0 mm 3 mps 759 mmHg 57%
12:00 +34°C° 0 mm 4 mps 759 mmHg 55%
13:00 +34°C° 0 mm 4 mps 759 mmHg 54%
14:00 +34°C° 0 mm 4 mps 758 mmHg 55%
15:00 +33°C° 0 mm 4 mps 758 mmHg 55%
16:00 +33°C° 0 mm 4 mps 758 mmHg 56%
17:00 +32°C° 0 mm 4 mps 758 mmHg 62%
18:00 +29°C° 0 mm 3 mps 759 mmHg 68%
19:00 +28°C° 0 mm 2 mps 759 mmHg 74%
20:00 +27°C° 0 mm 2 mps 759 mmHg 76%
21:00 +27°C° 0 mm 2 mps 759 mmHg 77%
22:00 +27°C° 0 mm 2 mps 760 mmHg 78%
23:00 +27°C° 0 mm 2 mps 759 mmHg 79%

Tomorrow, 17 June, Thursday

Time Temperature Precipitation Wind Pressure Humidity
00:00 +26°C° 0 mm 2 mps 759 mmHg 80%
01:00 +26°C° 0 mm 2 mps 759 mmHg 81%
02:00 +26°C° 0 mm 2 mps 759 mmHg 82%
03:00 +25°C° 0 mm 2 mps 758 mmHg 83%
04:00 +25°C° 0 mm 2 mps 758 mmHg 83%
05:00 +26°C° 0 mm 2 mps 759 mmHg 80%
06:00 +27°C° 0 mm 2 mps 759 mmHg 77%
07:00 +28°C° 0 mm 3 mps 759 mmHg 74%
08:00 +30°C° 0 mm 3 mps 759 mmHg 67%
09:00 +33°C° 0 mm 3 mps 759 mmHg 60%
10:00 +34°C° 0 mm 3 mps 759 mmHg 53%
11:00 +35°C° 0 mm 3 mps 759 mmHg 52%
12:00 +35°C° 0 mm 4 mps 758 mmHg 51%
13:00 +35°C° 0 mm 4 mps 758 mmHg 51%
14:00 +34°C° 0 mm 4 mps 758 mmHg 54%
15:00 +34°C° 0 mm 4 mps 757 mmHg 57%
16:00 +33°C° 0 mm 4 mps 757 mmHg 60%
17:00 +32°C° 0.1 mm 4 mps 758 mmHg 67%
18:00 +29°C° 0.1 mm 3 mps 758 mmHg 74%
19:00 +28°C° 0.1 mm 2 mps 758 mmHg 80%
20:00 +27°C° 0.1 mm 2 mps 759 mmHg 81%
21:00 +27°C° 0.1 mm 2 mps 759 mmHg 82%
22:00 +27°C° 0.1 mm 2 mps 760 mmHg 82%
23:00 +26°C° 0.3 mm 2 mps 759 mmHg 85%

Day after tomorrow, 18 June, Friday

Time Temperature Precipitation Wind Pressure Humidity
00:00 +26°C° 0.3 mm 2 mps 759 mmHg 88%
01:00 +25°C° 0.3 mm 2 mps 759 mmHg 91%
02:00 +25°C° 0.8 mm 2 mps 759 mmHg 91%
03:00 +25°C° 0.8 mm 2 mps 759 mmHg 91%
04:00 +25°C° 0.8 mm 2 mps 759 mmHg 92%
05:00 +26°C° 0.1 mm 2 mps 759 mmHg 88%
06:00 +27°C° 0.1 mm 2 mps 760 mmHg 85%
07:00 +28°C° 0.1 mm 2 mps 760 mmHg 82%
08:00 +29°C° 0.4 mm 3 mps 760 mmHg 77%
09:00 +30°C° 0.4 mm 3 mps 760 mmHg 73%
10:00 +32°C° 0.4 mm 4 mps 760 mmHg 68%
11:00 +32°C° 0.5 mm 4 mps 760 mmHg 66%
12:00 +33°C° 0.5 mm 5 mps 760 mmHg 64%
13:00 +33°C° 0.5 mm 5 mps 759 mmHg 63%
14:00 +32°C° 0.7 mm 5 mps 759 mmHg 65%
15:00 +32°C° 0.7 mm 4 mps 759 mmHg 67%
16:00 +30°C° 0.7 mm 4 mps 759 mmHg 70%
17:00 +29°C° 1 mm 4 mps 759 mmHg 76%
18:00 +28°C° 1 mm 3 mps 759 mmHg 83%
19:00 +26°C° 1 mm 2 mps 760 mmHg 89%
20:00 +26°C° 0.7 mm 2 mps 760 mmHg 91%
21:00 +26°C° 0.7 mm 2 mps 760 mmHg 92%
22:00 +26°C° 0.7 mm 2 mps 761 mmHg 93%
23:00 +26°C° 0.4 mm 2 mps 760 mmHg 94%

19 June, Saturday

Time Temperature Precipitation Wind Pressure Humidity
00:00 +25°C° 0.4 mm 2 mps 760 mmHg 94%
01:00 +25°C° 0.4 mm 1 mps 760 mmHg 94%
02:00 +25°C° 0.1 mm 2 mps 760 mmHg 95%
03:00 +25°C° 0.1 mm 2 mps 760 mmHg 95%
04:00 +25°C° 0.1 mm 2 mps 760 mmHg 95%
05:00 +26°C° 0 mm 2 mps 760 mmHg 92%
06:00 +27°C° 0 mm 2 mps 761 mmHg 88%
07:00 +28°C° 0 mm 2 mps 761 mmHg 84%
08:00 +29°C° 0 mm 2 mps 761 mmHg 75%
09:00 +31°C° 0 mm 3 mps 761 mmHg 66%
10:00 +33°C° 0 mm 3 mps 761 mmHg 57%
11:00 +34°C° 0 mm 4 mps 760 mmHg 55%
12:00 +34°C° 0 mm 4 mps 760 mmHg 54%
13:00 +34°C° 0 mm 5 mps 760 mmHg 52%
14:00 +34°C° 0 mm 4 mps 759 mmHg 55%
15:00 +33°C° 0 mm 4 mps 759 mmHg 58%
16:00 +32°C° 0 mm 4 mps 759 mmHg 61%
17:00 +30°C° 0 mm 3 mps 759 mmHg 68%
18:00 +29°C° 0 mm 2 mps 760 mmHg 75%
19:00 +27°C° 0 mm 1 mps 760 mmHg 82%
20:00 +27°C° 0 mm 2 mps 760 mmHg 82%
21:00 +27°C° 0 mm 2 mps 760 mmHg 82%
22:00 +26°C° 0 mm 2 mps 761 mmHg 82%
23:00 +26°C° 0 mm 2 mps 760 mmHg 84%

20 June, Sunday

Time Temperature Precipitation Wind Pressure Humidity
00:00 +26°C° 0 mm 2 mps 760 mmHg 85%
01:00 +26°C° 0 mm 2 mps 759 mmHg 86%
02:00 +26°C° 0 mm 2 mps 759 mmHg 86%
03:00 +25°C° 0 mm 2 mps 759 mmHg 86%
04:00 +25°C° 0 mm 2 mps 759 mmHg 86%
05:00 +26°C° 0 mm 2 mps 760 mmHg 84%
06:00 +27°C° 0 mm 2 mps 760 mmHg 82%
07:00 +28°C° 0 mm 2 mps 760 mmHg 80%
08:00 +30°C° 0.1 mm 2 mps 760 mmHg 74%
09:00 +31°C° 0.1 mm 2 mps 760 mmHg 67%
10:00 +34°C° 0.1 mm 3 mps 760 mmHg 61%
11:00 +33°C° 0.3 mm 3 mps 760 mmHg 61%
12:00 +33°C° 0.3 mm 3 mps 760 mmHg 62%
13:00 +33°C° 0.3 mm 4 mps 759 mmHg 63%
14:00 +31°C° 1 mm 3 mps 759 mmHg 68%
15:00 +30°C° 1 mm 3 mps 759 mmHg 73%
16:00 +30°C° 1 mm 3 mps 759 mmHg 78%
17:00 +29°C° 0.5 mm 2 mps 759 mmHg 81%
18:00 +28°C° 0.5 mm 2 mps 760 mmHg 84%
19:00 +27°C° 0.5 mm 1 mps 760 mmHg 88%
20:00 +27°C° 0 mm 2 mps 760 mmHg 88%
21:00 +27°C° 0 mm 2 mps 760 mmHg 89%
22:00 +26°C° 0 mm 2 mps 761 mmHg 89%
23:00 +26°C° 0 mm 2 mps 760 mmHg 90%

21 June, Monday

Time Temperature Precipitation Wind Pressure Humidity
00:00 +26°C° 0 mm 2 mps 760 mmHg 91%
01:00 +26°C° 0 mm 2 mps 759 mmHg 92%
02:00 +25°C° 0.1 mm 2 mps 759 mmHg 92%
03:00 +25°C° 0.1 mm 2 mps 759 mmHg 92%
04:00 +25°C° 0.1 mm 1 mps 759 mmHg 92%
05:00 +26°C° 0.3 mm 2 mps 760 mmHg 90%
06:00 +27°C° 0.3 mm 2 mps 760 mmHg 87%
07:00 +28°C° 0.3 mm 2 mps 760 mmHg 84%
08:00 +28°C° 0.7 mm 2 mps 761 mmHg 81%
09:00 +29°C° 0.7 mm 3 mps 761 mmHg 78%
10:00 +30°C° 0.7 mm 3 mps 761 mmHg 76%
11:00 +30°C° 0.2 mm 3 mps 760 mmHg 72%
12:00 +31°C° 0.2 mm 3 mps 760 mmHg 69%
13:00 +32°C° 0.2 mm 4 mps 760 mmHg 66%
14:00 +32°C° 0 mm 4 mps 760 mmHg 64%
15:00 +32°C° 0 mm 4 mps 759 mmHg 62%
16:00 +31°C° 0 mm 3 mps 759 mmHg 60%
17:00 +30°C° 0 mm 3 mps 759 mmHg 68%
18:00 +29°C° 0 mm 3 mps 760 mmHg 75%
19:00 +27°C° 0 mm 2 mps 760 mmHg 83%
20:00 +27°C° 0.1 mm 2 mps 760 mmHg 84%
21:00 +27°C° 0.1 mm 2 mps 760 mmHg 85%
22:00 +27°C° 0.1 mm 2 mps 761 mmHg 86%
23:00 +26°C° 0 mm 2 mps 760 mmHg 88%
Show more

We Need Your Consent

Meteoprog and our Service Providers may store and access personal data such as cookies, device identifiers or other similar technologies on your device and process such data to personalise content and ads, as well as provide social media features and to analyse the traffic.

  • Store and/or access information on your device

    Cookies, device identifiers or other information can be stored or accessed on your device for the purposes indicated above.

  • Personalised ads and content, ad and content measurement, audience insights, and products development

    Ads and content can be personalised based on a profile. More data can be added to better personalise ads and content. Ad and content performance can be measured. Insights about the audience who saw the ads and content can be derived. Such data can be used to develop or improve user’s experience, systems and software.

By clicking ‘I Agree’ you will allow the use of indicated cookies, device identifiers, web beacons or other similar technologies. Your settings can be changed in the browser on your device.

For certain purposes, legitimate interests may be relied on, rather than consent. You can read more about this in our Privacy and Cookie Policy.